Find Starlink 32248

NORAD ID: 61219 Int'l Des: 2024-171 Owner: SPXS Country: US Constellation: starlink operational
LEOCIRCULAR

实时位置

正在加载3D地球...

关于 Starlink 32248

正在加载描述...

即将过境

Passes for default location (London). Set your location on the main map for personalized predictions.

高度历史

Loading altitude history...

两行轨道根数

1 61219U 24171V 26125.82719420 .00002796 00000-0 10643-3 0 9994
2 61219 53.1614 57.2423 0000487 60.3374 299.7675 15.30210724 92029
Epoch: May 5, 2026 • Age: 4 hours

当前状态

高度 490.6 km
速度 7.62 km/s
星下点 -44.65°S, 59.39°E
发射日期 Sep 20, 2024
运行时间 1.6 years
类型 internet

技术详情

分类 Payload
质量 730.00 kg
干质量 700.00 kg
总质量 730.00 kg
长度 0.30 m
直径 4.10 m
跨度 29.00 m
形状 Box + pan
制造商 SPXS
平台类型 Starlink V2M
阶段状态 In Orbit
所有者/国家 SPXS/US

Most Searched